This is the latest recevied weather packets stored in our database for station/object N1ICS-1. If no packets are shown the sender has not sent any weather packets the latest 10 day(s).
| Time | Temp. | Humidity | Pressure | Rain* | Wind** | Luminosity | Snow |
|---|---|---|---|---|---|---|---|
| 1777629302 | 5° C | 99% | 1014.1 hPa | 0.51 mm | - | 0 W/m² | - |
| 1777629002 | 5° C | 99% | 1014.2 hPa | 1.02 mm | - | 0 W/m² | - |
| 1777628702 | 5.56° C | 99% | 1014.4 hPa | 1.78 mm | - | 0 W/m² | - |
| 1777628402 | 5.56° C | 99% | 1014.3 hPa | 2.29 mm | - | 0 W/m² | - |
| 1777628102 | 5° C | 99% | 1014.5 hPa | 2.79 mm | - | 0 W/m² | - |
| 1777627803 | 5.56° C | 99% | 1014.5 hPa | 1.02 mm | - | 0 W/m² | - |
| 1777627502 | 5.56° C | 99% | 1014.2 hPa | 0 mm | - | 0 W/m² | - |
| 1777627203 | 5.56° C | 99% | 1014.2 hPa | 0 mm | - | 0 W/m² | - |
| 1777626902 | 5.56° C | 99% | 1014 hPa | 0.51 mm | - | 0 W/m² | - |
| 1777626602 | 5.56° C | 99% | 1014 hPa | 0.51 mm | - | 0 W/m² | - |
| 1777626302 | 5.56° C | 99% | 1014 hPa | 0.51 mm | - | 0 W/m² | - |
| 1777626003 | 5.56° C | 99% | 1014.2 hPa | 0.51 mm | - | 0 W/m² | - |
| 1777625702 | 5.56° C | 99% | 1014.3 hPa | 0.51 mm | - | 0 W/m² | - |
| 1777625402 | 5.56° C | 99% | 1014.1 hPa | 0.51 mm | - | 0 W/m² | - |
| 1777625102 | 5.56° C | 99% | 1014.1 hPa | 0.51 mm | - | 0 W/m² | - |
| 1777624801 | 5.56° C | 99% | 1014 hPa | 0 mm | - | 0 W/m² | - |
| 1777624502 | 5.56° C | 99% | 1014.1 hPa | 0 mm | - | 0 W/m² | - |
| 1777624201 | 5° C | 99% | 1014.2 hPa | 0 mm | - | 0 W/m² | - |
| 1777623902 | 5° C | 99% | 1014.3 hPa | 0 mm | - | 0 W/m² | - |
| 1777623602 | 5° C | 99% | 1014.4 hPa | 0.51 mm | - | 0 W/m² | - |
| 1777623302 | 5° C | 99% | 1014.5 hPa | 1.78 mm | - | 0 W/m² | - |
| 1777623002 | 5.56° C | 98% | 1014.4 hPa | 1.78 mm | - | 0 W/m² | - |
| 1777622702 | 5.56° C | 99% | 1014.6 hPa | 1.78 mm | - | 0 W/m² | - |
| 1777622403 | 5.56° C | 98% | 1014.7 hPa | 2.29 mm | - | 0 W/m² | - |
| 1777622102 | 5.56° C | 98% | 1014.7 hPa | 1.02 mm | - | 0 W/m² | - |
* Rain latest hour (hover to see other rain measurements)
** Current wind speed in m/s (hover to see current wind gust speed)